Weather History for Randolph AFB, TX

Change the Weather History Date:

Tuesday, June 3, 2014

  Actual Average Record
Temperature  
Mean Temperature 80 °F -  
Max Temperature 90 °F 88 °F 100 °F (1998)
Min Temperature 71 °F 69 °F 64 °F (1997)
Cooling Degree Days 15    
Growing Degree Days 30 (Base 50)    
Moisture  
Dew Point 70 °F    
Average Humidity 79    
Maximum Humidity 94    
Minimum Humidity 53    
Precipitation  
Precipitation 0.00 in - - ()
Sea Level Pressure  
Sea Level Pressure 29.97 in    
Wind  
Wind Speed 4 mph (ESE)    
Max Wind Speed 10 mph    
Max Gust Speed -    
Visibility 10 miles    
Events Rain    
Averages and records for this station are not official NWS values.
T = Trace of Precipitation, MM = Missing Value Source: NWS Daily Summary

Daily Weather History Graph

Daily Weather History Graph

Search for Another Location

Airport:

Trip Planner

Search our weather history database for the weather conditions in past years. The results will help you decide how hot, cold, wet, or windy it might be!

Date:

Astronomy

Jun. 03, 2014 Rise Set
Actual Time 6:33 AM CDT 8:29 PM CDT
Civil Twilight 6:06 AM CDT 8:56 PM CDT
Nautical Twilight 5:33 AM CDT 9:29 PM CDT
Astronomical Twilight 4:58 AM CDT 10:03 PM CDT
Moon 11:42 AM CDT (6/3) 12:12 AM CDT (6/3)
Length of Visible Light 14h 50m
Length of Day
13h 56m
Waxing Crescent, 30% of the Moon is Illuminated
Jun 3
Waxing Crescent
Jun 5
First Quarter
Jun 12
Full
Jun 19
Last Quarter
Jun 27
New

Hourly Weather History & Observations

Time (CDT) Temp. Heat Index Dew Point Humidity Pressure Visibility Wind Dir Wind Speed Gust Speed Precip Events Conditions
12:58 AM 73.2 °F - 69.1 °F 87% 29.97 in 10.0 mi SE 4.6 mph - N/A   Clear
1:13 AM 73.4 °F - 69.8 °F 88% 29.99 in 10.0 mi ESE 3.5 mph - N/A   Mostly Cloudy
1:43 AM 73.4 °F - 69.8 °F 88% 29.99 in 10.0 mi East 2.3 mph - N/A   Scattered Clouds
1:58 AM 71.8 °F - 69.1 °F 91% 29.96 in 10.0 mi East 2.3 mph - N/A   Clear
2:18 AM 71.6 °F - 69.8 °F 94% 29.98 in 10.0 mi East 2.3 mph - N/A   Mostly Cloudy
2:58 AM 72.0 °F - 70.0 °F 93% 29.96 in 10.0 mi SE 3.5 mph - N/A   Overcast
3:48 AM 73.4 °F - 69.8 °F 88% 29.97 in 10.0 mi ENE 2.3 mph - N/A   Overcast
3:53 AM 73.4 °F - 69.8 °F 88% 29.97 in 10.0 mi ENE 2.3 mph - N/A   Overcast
3:58 AM 72.9 °F - 70.5 °F 92% 29.95 in 10.0 mi ENE 2.3 mph - N/A   Overcast
4:08 AM 73.4 °F - 69.8 °F 88% 29.97 in 10.0 mi ENE 1.2 mph - N/A   Overcast
4:13 AM 73.4 °F - 69.8 °F 88% 29.97 in 10.0 mi ENE 1.2 mph - N/A   Overcast
4:23 AM 73.4 °F - 69.8 °F 88% 29.98 in 10.0 mi East 2.3 mph - N/A   Overcast
4:43 AM 73.4 °F - 69.8 °F 88% 29.98 in 10.0 mi Calm Calm - N/A   Mostly Cloudy
4:58 AM 72.7 °F - 70.3 °F 92% 29.96 in 10.0 mi East 2.3 mph - N/A   Overcast
5:08 AM 73.4 °F - 69.8 °F 88% 29.98 in 10.0 mi East 2.3 mph - N/A   Overcast
5:23 AM 73.4 °F - 69.8 °F 88% 29.98 in 10.0 mi ENE 1.2 mph - N/A   Overcast
5:38 AM 73.4 °F - 71.6 °F 94% 29.98 in 10.0 mi East 3.5 mph - N/A   Overcast
5:58 AM 72.9 °F - 70.5 °F 92% 29.96 in 10.0 mi East 2.3 mph - N/A   Overcast
6:26 AM 73.4 °F - 71.6 °F 94% 29.98 in 10.0 mi ESE 2.3 mph - N/A Rain Light Rain
6:37 AM 73.4 °F - 71.6 °F 94% 29.99 in 10.0 mi East 3.5 mph - N/A   Overcast
6:58 AM 73.4 °F - 71.6 °F 94% 29.97 in 10.0 mi East 2.3 mph - 0.00 in   Overcast
7:58 AM 74.3 °F - 71.2 °F 90% 29.98 in 10.0 mi East 4.6 mph - N/A   Overcast
8:08 AM 75.2 °F - 71.6 °F 89% 30.00 in 10.0 mi East 3.5 mph - N/A   Overcast
8:18 AM 75.2 °F - 71.6 °F 89% 30.00 in 10.0 mi East 3.5 mph - N/A   Overcast
8:23 AM 75.2 °F - 71.6 °F 89% 30.00 in 10.0 mi ESE 3.5 mph - N/A   Overcast
8:47 AM 75.2 °F - 71.6 °F 89% 30.01 in 10.0 mi East 3.5 mph - N/A   Overcast
8:58 AM 76.3 °F - 71.2 °F 84% 29.99 in 10.0 mi ESE 5.8 mph - N/A   Overcast
9:23 AM 77.0 °F - 69.8 °F 78% 30.01 in 10.0 mi East 4.6 mph - N/A   Overcast
9:53 AM 78.8 °F - 71.6 °F 78% 30.02 in 10.0 mi SE 4.6 mph - N/A   Overcast
9:58 AM 78.8 °F - 70.9 °F 77% 30.00 in 10.0 mi SE 4.6 mph - N/A   Overcast
10:38 AM 78.8 °F - 69.8 °F 74% 30.02 in 10.0 mi SSE 4.6 mph - N/A   Overcast
10:58 AM 80.6 °F 83.9 °F 69.8 °F 70% 30.00 in 10.0 mi ESE 9.2 mph - N/A   Mostly Cloudy
11:58 AM 84.2 °F 88.4 °F 69.8 °F 62% 30.00 in 10.0 mi ESE 8.1 mph - N/A   Overcast
12:03 PM 84.2 °F 88.4 °F 69.8 °F 62% 30.02 in 10.0 mi East 4.6 mph - N/A   Overcast
12:13 PM 84.2 °F 88.4 °F 69.8 °F 62% 30.02 in 10.0 mi ESE 8.1 mph - N/A   Mostly Cloudy
12:18 PM 84.2 °F 88.4 °F 69.8 °F 62% 30.02 in 10.0 mi SE 6.9 mph - N/A   Mostly Cloudy
12:58 PM 84.7 °F 89.7 °F 70.7 °F 63% 29.98 in 10.0 mi SSE 8.1 mph - N/A   Mostly Cloudy
1:58 PM 86.5 °F 91.0 °F 69.6 °F 57% 29.97 in 10.0 mi SE 4.6 mph - N/A   Mostly Cloudy
2:58 PM 88.2 °F 92.9 °F 69.6 °F 54% 29.95 in 10.0 mi SSE 5.8 mph - N/A   Mostly Cloudy
3:58 PM 89.8 °F 96.0 °F 70.9 °F 54% 29.93 in 10.0 mi SE 9.2 mph - N/A   Partly Cloudy
4:58 PM 88.5 °F 93.5 °F 69.8 °F 54% 29.92 in 10.0 mi SE 6.9 mph - N/A   Scattered Clouds
5:58 PM 89.1 °F 94.1 °F 70.0 °F 53% 29.90 in 10.0 mi ESE 9.2 mph - N/A   Partly Cloudy
6:58 PM 88.0 °F 92.5 °F 69.3 °F 54% 29.90 in 10.0 mi ESE 6.9 mph - N/A   Clear
7:58 PM 85.3 °F 89.1 °F 69.1 °F 58% 29.90 in 10.0 mi SE 9.2 mph - N/A   Clear
8:58 PM 80.6 °F 83.8 °F 69.4 °F 69% 29.91 in 10.0 mi ESE 5.8 mph - N/A   Clear
9:58 PM 80.1 °F 83.3 °F 70.3 °F 72% 29.92 in 10.0 mi SE 10.4 mph - N/A   Clear
10:58 PM 78.8 °F - 70.9 °F 77% 29.93 in 10.0 mi SSE 10.4 mph - N/A   Scattered Clouds
11:58 PM 77.4 °F - 69.6 °F 77% 29.93 in 10.0 mi South 10.4 mph - N/A   Clear